When you browse on this site, cookies collect data to enhance your experience and personalize the content and advertising you see.
Visit our Privacy Policy to learn more. By continuing to use the site, you agree to this use of cookies and data.
  • In United Kingdom
  • List of Countries
  • For 7 days
  • Water Temperature
  • Satellite Maps
  • Weather Map
  • Weather Widgets
  • user-avatar
    Login

    Hourly Weather Inverness

    Today, 25 April, Thursday

    Time Temperature Precipitation Wind Pressure Humidity
    00:00 +8°C° 0 mm 3 mps 741 mmHg 96%
    01:00 +8°C° 0 mm 3 mps 741 mmHg 96%
    02:00 +9°C° 0 mm 2 mps 741 mmHg 95%
    03:00 +9°C° 0 mm 2 mps 741 mmHg 95%
    04:00 +9°C° 0.4 mm 2 mps 741 mmHg 95%
    05:00 +10°C° 0.4 mm 1 mps 742 mmHg 95%
    06:00 +10°C° 0 mm 1 mps 742 mmHg 95%
    07:00 +12°C° 0.1 mm 1 mps 742 mmHg 87%
    08:00 +13°C° 0.1 mm 2 mps 743 mmHg 79%
    09:00 +13°C° 0.1 mm 3 mps 743 mmHg 71%
    10:00 +14°C° 0 mm 3 mps 743 mmHg 62%
    11:00 +16°C° 0 mm 3 mps 744 mmHg 53%
    12:00 +17°C° 0 mm 3 mps 744 mmHg 44%
    13:00 +17°C° 0 mm 4 mps 744 mmHg 47%
    14:00 +16°C° 0 mm 5 mps 744 mmHg 49%
    15:00 +15°C° 0 mm 6 mps 744 mmHg 51%
    16:00 +14°C° 0.3 mm 5 mps 744 mmHg 61%
    17:00 +12°C° 0.3 mm 4 mps 744 mmHg 70%
    18:00 +11°C° 0.3 mm 3 mps 744 mmHg 80%
    19:00 +10°C° 0 mm 3 mps 744 mmHg 83%
    20:00 +9°C° 0 mm 2 mps 745 mmHg 86%
    21:00 +9°C° 0 mm 2 mps 745 mmHg 89%
    22:00 +9°C° 0 mm 2 mps 745 mmHg 90%
    23:00 +8°C° 0 mm 2 mps 745 mmHg 91%

    Tomorrow, 26 April, Friday

    Time Temperature Precipitation Wind Pressure Humidity
    00:00 +8°C° 0 mm 2 mps 745 mmHg 92%
    01:00 +8°C° 0 mm 2 mps 745 mmHg 92%
    02:00 +7°C° 0 mm 2 mps 745 mmHg 92%
    03:00 +7°C° 0 mm 2 mps 745 mmHg 93%
    04:00 +7°C° 0 mm 2 mps 745 mmHg 91%
    05:00 +7°C° 0 mm 2 mps 745 mmHg 90%
    06:00 +8°C° 0 mm 2 mps 745 mmHg 89%
    07:00 +9°C° 0 mm 3 mps 745 mmHg 80%
    08:00 +11°C° 0 mm 4 mps 745 mmHg 72%
    09:00 +12°C° 0 mm 5 mps 745 mmHg 64%
    10:00 +13°C° 0 mm 5 mps 745 mmHg 62%
    11:00 +13°C° 0 mm 5 mps 745 mmHg 59%
    12:00 +14°C° 0 mm 5 mps 745 mmHg 57%
    13:00 +14°C° 0 mm 5 mps 745 mmHg 55%
    14:00 +15°C° 0 mm 5 mps 744 mmHg 53%
    15:00 +15°C° 0 mm 5 mps 744 mmHg 51%
    16:00 +14°C° 0.2 mm 5 mps 744 mmHg 59%
    17:00 +13°C° 0.2 mm 4 mps 743 mmHg 68%
    18:00 +12°C° 0.2 mm 4 mps 743 mmHg 76%
    19:00 +11°C° 0.1 mm 3 mps 744 mmHg 80%
    20:00 +10°C° 0.1 mm 3 mps 744 mmHg 84%
    21:00 +10°C° 0.1 mm 2 mps 744 mmHg 87%
    22:00 +9°C° 0 mm 2 mps 744 mmHg 88%
    23:00 +8°C° 0 mm 2 mps 744 mmHg 88%

    Day after tomorrow, 27 April, Saturday

    Time Temperature Precipitation Wind Pressure Humidity
    00:00 +8°C° 0 mm 2 mps 745 mmHg 89%
    01:00 +8°C° 0 mm 1 mps 745 mmHg 89%
    02:00 +8°C° 0 mm 1 mps 745 mmHg 90%
    03:00 +7°C° 0 mm 1 mps 745 mmHg 91%
    04:00 +8°C° 0 mm 1 mps 746 mmHg 90%
    05:00 +7°C° 0 mm 0 mps 746 mmHg 89%
    06:00 +7°C° 0 mm 0 mps 747 mmHg 88%
    07:00 +9°C° 0 mm 0 mps 747 mmHg 80%
    08:00 +11°C° 0 mm 1 mps 748 mmHg 73%
    09:00 +13°C° 0 mm 1 mps 749 mmHg 65%
    10:00 +13°C° 0 mm 1 mps 749 mmHg 62%
    11:00 +14°C° 0 mm 1 mps 750 mmHg 59%
    12:00 +15°C° 0 mm 2 mps 750 mmHg 57%
    13:00 +14°C° 0 mm 2 mps 751 mmHg 58%
    14:00 +14°C° 0 mm 2 mps 751 mmHg 60%
    15:00 +13°C° 0 mm 3 mps 752 mmHg 61%
    16:00 +13°C° 0.1 mm 2 mps 753 mmHg 67%
    17:00 +13°C° 0.1 mm 2 mps 753 mmHg 72%
    18:00 +12°C° 0.1 mm 2 mps 754 mmHg 78%
    19:00 +10°C° 0.1 mm 2 mps 755 mmHg 81%
    20:00 +10°C° 0.1 mm 3 mps 756 mmHg 85%
    21:00 +9°C° 0.1 mm 3 mps 757 mmHg 88%
    22:00 +9°C° 0.1 mm 3 mps 757 mmHg 88%
    23:00 +8°C° 0.1 mm 3 mps 758 mmHg 87%

    28 April, Sunday

    Time Temperature Precipitation Wind Pressure Humidity
    00:00 +8°C° 0.1 mm 3 mps 758 mmHg 87%
    01:00 +8°C° 0 mm 2 mps 759 mmHg 88%
    02:00 +7°C° 0 mm 2 mps 759 mmHg 88%
    03:00 +8°C° 0 mm 1 mps 760 mmHg 89%
    04:00 +8°C° 0 mm 1 mps 760 mmHg 89%
    05:00 +8°C° 0 mm 1 mps 761 mmHg 89%
    06:00 +8°C° 0 mm 1 mps 761 mmHg 89%
    07:00 +9°C° 0 mm 1 mps 762 mmHg 82%
    08:00 +10°C° 0 mm 1 mps 762 mmHg 75%
    09:00 +11°C° 0 mm 0 mps 762 mmHg 67%
    10:00 +13°C° 0 mm 1 mps 762 mmHg 62%
    11:00 +15°C° 0 mm 1 mps 763 mmHg 57%
    12:00 +16°C° 0 mm 1 mps 763 mmHg 52%
    13:00 +16°C° 0 mm 1 mps 763 mmHg 51%
    14:00 +17°C° 0 mm 2 mps 763 mmHg 49%
    15:00 +17°C° 0 mm 2 mps 763 mmHg 48%
    16:00 +16°C° 0 mm 2 mps 763 mmHg 51%
    17:00 +16°C° 0 mm 2 mps 763 mmHg 54%
    18:00 +15°C° 0 mm 2 mps 763 mmHg 57%
    19:00 +14°C° 0 mm 2 mps 763 mmHg 66%
    20:00 +12°C° 0 mm 2 mps 764 mmHg 75%
    21:00 +11°C° 0 mm 1 mps 764 mmHg 84%
    22:00 +10°C° 0 mm 1 mps 764 mmHg 86%
    23:00 +10°C° 0 mm 1 mps 764 mmHg 89%

    29 April, Monday

    Time Temperature Precipitation Wind Pressure Humidity
    00:00 +10°C° 0 mm 1 mps 764 mmHg 91%
    01:00 +10°C° 0.1 mm 1 mps 764 mmHg 91%
    02:00 +9°C° 0.1 mm 0 mps 764 mmHg 91%
    03:00 +9°C° 0.1 mm 0 mps 764 mmHg 91%
    04:00 +9°C° 0 mm 0 mps 764 mmHg 91%
    05:00 +10°C° 0 mm 1 mps 764 mmHg 91%
    06:00 +10°C° 0 mm 1 mps 764 mmHg 90%
    07:00 +12°C° 0 mm 1 mps 765 mmHg 80%
    08:00 +13°C° 0 mm 1 mps 765 mmHg 70%
    09:00 +15°C° 0 mm 2 mps 765 mmHg 59%
    10:00 +16°C° 0 mm 2 mps 765 mmHg 53%
    11:00 +17°C° 0 mm 2 mps 765 mmHg 47%
    12:00 +18°C° 0 mm 2 mps 765 mmHg 41%
    13:00 +19°C° 0 mm 2 mps 765 mmHg 40%
    14:00 +19°C° 0 mm 2 mps 765 mmHg 39%
    15:00 +20°C° 0 mm 2 mps 765 mmHg 39%
    16:00 +19°C° 0 mm 2 mps 765 mmHg 43%
    17:00 +18°C° 0 mm 2 mps 765 mmHg 48%
    18:00 +19°C° 0 mm 1 mps 765 mmHg 52%
    19:00 +16°C° 0 mm 1 mps 765 mmHg 61%
    20:00 +14°C° 0 mm 1 mps 766 mmHg 69%
    21:00 +12°C° 0 mm 1 mps 766 mmHg 77%
    22:00 +11°C° 0 mm 1 mps 766 mmHg 80%
    23:00 +11°C° 0 mm 1 mps 766 mmHg 82%

    30 April, Tuesday

    Time Temperature Precipitation Wind Pressure Humidity
    00:00 +10°C° 0 mm 1 mps 766 mmHg 85%
    01:00 +10°C° 0 mm 1 mps 766 mmHg 85%
    02:00 +9°C° 0 mm 1 mps 766 mmHg 86%
    03:00 +9°C° 0 mm 1 mps 766 mmHg 86%
    04:00 +9°C° 0 mm 1 mps 766 mmHg 84%
    05:00 +9°C° 0 mm 0 mps 766 mmHg 82%
    06:00 +9°C° 0 mm 0 mps 766 mmHg 80%
    07:00 +12°C° 0 mm 1 mps 766 mmHg 72%
    08:00 +14°C° 0 mm 1 mps 766 mmHg 65%
    09:00 +16°C° 0 mm 1 mps 766 mmHg 57%
    10:00 +18°C° 0 mm 1 mps 766 mmHg 53%
    11:00 +18°C° 0 mm 2 mps 766 mmHg 49%
    12:00 +19°C° 0 mm 2 mps 766 mmHg 44%
    13:00 +19°C° 0 mm 3 mps 766 mmHg 45%
    14:00 +19°C° 0 mm 3 mps 766 mmHg 46%
    15:00 +19°C° 0 mm 4 mps 766 mmHg 47%
    16:00 +18°C° 0 mm 3 mps 766 mmHg 50%
    17:00 +17°C° 0 mm 3 mps 766 mmHg 53%
    18:00 +16°C° 0 mm 3 mps 766 mmHg 55%
    19:00 +14°C° 0 mm 2 mps 766 mmHg 61%
    20:00 +12°C° 0 mm 2 mps 767 mmHg 66%
    21:00 +11°C° 0 mm 1 mps 767 mmHg 71%
    22:00 +10°C° 0 mm 1 mps 767 mmHg 73%
    23:00 +9°C° 0 mm 1 mps 767 mmHg 75%
    Show more